Location: Unspecified
(49.2170°N, 0.0000°E)
Time: 14:55:42
(UTC+00:00)

Tiros 1 despin weight - Pass Details

Date: 22 January 2021
Orbit: 593 x 642 km, 48.2° (Epoch: 07 March)

Event Time Altitude Azimuth Distance (km) Brightness Sun altitude
Rises 16:21:01 0° 247° (WSW) 2,873 ? 1.9°
Reaches altitude 10° 16:23:20 10° 244° (WSW) 1,961 ? 1.6°
Maximum altitude 16:27:47 61° 164° (SSE) 687 ? 1.0°
Drops below altitude 10° 16:32:10 10° 84° (E) 1,939 ? 0.4°
Sets 16:34:27 0° 81° (E) 2,838 ? 0.0°
